Date String (YYYY-MM-DD hh:mm:ss) UTC,Instrument flags,Ambient pressure (hPa),Sample flow (lpm),Bypass flow (lpm),Sample temperature (°C),Ambient temperature (°C),ASC tube jacket temperature (°C),LED temperature (°C),Box temperature (°C),Sample RH (%),Span deviation,Mass concentration (μg/m³),Mass concentration (μg/m³),Mass concentration (μg/m³)
DateTimeUTC,F1_M11,P_M11,Q1_M11,Q2_M11,T1_M11,T2_M11,T3_M11,T4_M11,T5_M11,U1_M11,ZSPAN_M11,X2_M11,X0_M11,X1_M11
2023-05-29 10:00:00,,0829.6,5.00,0.00,29.1,27.4,00.0,37.4,30.7,18.7,0000.0,0003.94,0009.27,0003.17
2023-05-29 10:01:00,,0829.6,5.01,0.00,29.1,27.4,00.0,37.4,30.7,18.6,0000.0,0003.93,0009.11,0003.16
2023-05-29 10:02:00,,0829.6,4.99,0.00,29.1,27.4,00.0,37.4,30.7,18.7,0000.0,0003.94,0009.04,0003.16
2023-05-29 10:03:00,,0829.5,5.00,0.00,29.1,27.4,00.0,37.4,30.7,18.7,0000.0,0003.98,0008.87,0003.15
2023-05-29 10:04:00,,0829.6,4.99,0.00,29.1,27.4,00.0,37.4,30.7,18.4,0000.0,0003.97,0008.53,0003.15
2023-05-29 10:05:00,,0829.6,5.00,0.00,29.1,27.4,00.0,37.4,30.7,18.4,0000.0,0003.94,0008.45,0003.14
2023-05-29 10:06:00,,0829.6,5.00,0.00,29.1,27.4,00.0,37.4,30.7,18.5,0000.0,0003.96,0008.46,0003.14
2023-05-29 10:07:00,,0829.5,5.00,0.00,29.1,27.4,00.0,37.4,30.7,18.5,0000.0,0003.99,0008.61,0003.14
2023-05-29 10:08:00,,0829.4,5.00,0.00,29.1,27.4,00.0,37.4,30.6,18.4,0000.0,0004.00,0008.65,0003.14
2023-05-29 10:09:00,,0829.4,5.00,0.00,29.1,27.4,00.0,37.4,30.6,18.3,0000.0,0004.01,0008.69,0003.14
2023-05-29 10:10:00,,0829.4,5.00,0.00,29.1,27.4,00.0,37.4,30.6,18.1,0000.0,0004.01,0008.78,0003.13
2023-05-29 10:11:00,,0829.4,5.00,0.00,29.1,27.4,00.0,37.4,30.6,18.0,0000.0,0004.03,0008.37,0003.13
2023-05-29 10:12:00,,0829.4,5.00,0.00,29.1,27.3,00.0,37.4,30.6,17.9,0000.0,0004.02,0008.06,0003.13
2023-05-29 10:13:00,,0829.3,4.99,0.00,29.1,27.3,00.0,37.4,30.6,18.0,0000.0,0004.01,0008.06,0003.13
2023-05-29 10:14:00,,0829.4,5.00,0.00,29.1,27.3,00.0,37.4,30.6,18.1,0000.0,0003.96,0007.98,0003.12
2023-05-29 10:15:00,,0829.3,5.00,0.00,29.0,27.3,00.0,37.4,30.6,18.5,0000.0,0003.93,0007.88,0003.12
2023-05-29 10:16:00,,0829.3,5.00,0.00,29.0,27.3,00.0,37.4,30.6,18.6,0000.0,0003.91,0007.75,0003.13
2023-05-29 10:17:00,,0829.3,5.00,0.00,29.0,27.3,00.0,37.4,30.6,18.4,0000.0,0003.92,0007.76,0003.13
2023-05-29 10:18:00,,0829.4,5.00,0.00,29.0,27.3,00.0,37.4,30.6,18.5,0000.0,0003.90,0007.67,0003.13
2023-05-29 10:19:00,,0829.3,5.00,0.00,29.0,27.3,00.0,37.4,30.6,18.7,0000.0,0003.90,0007.67,0003.14
2023-05-29 10:20:00,,0829.4,5.01,0.00,29.0,27.3,00.0,37.4,30.6,18.4,0000.0,0003.94,0007.75,0003.14
2023-05-29 10:21:00,,0829.4,5.01,0.00,29.0,27.3,00.0,37.4,30.6,18.6,0000.0,0003.92,0007.59,0003.15
2023-05-29 10:22:00,,0829.3,5.01,0.00,29.0,27.3,00.0,37.4,30.6,18.4,0000.0,0003.93,0007.63,0003.15
2023-05-29 10:23:00,,0829.3,5.00,0.00,29.0,27.3,00.0,37.4,30.6,18.3,0000.0,0003.93,0007.63,0003.15
2023-05-29 10:24:00,,0829.3,4.98,0.00,29.0,27.3,00.0,37.4,30.6,18.1,0000.0,0003.94,0007.64,0003.16
2023-05-29 10:25:00,,0829.3,5.02,0.00,29.0,27.2,00.0,37.4,30.6,18.1,0000.0,0003.93,0007.57,0003.17
2023-05-29 10:26:00,,0829.4,5.02,0.00,29.0,27.3,00.0,37.4,30.6,18.2,0000.0,0003.93,0007.69,0003.16
2023-05-29 10:27:00,,0829.3,4.98,0.00,29.0,27.3,00.0,37.4,30.6,18.2,0000.0,0003.92,0007.68,0003.15
2023-05-29 10:28:00,,0829.4,4.99,0.00,29.0,27.2,00.0,37.4,30.6,18.2,0000.0,0003.93,0007.71,0003.15
2023-05-29 10:29:00,,0829.3,5.01,0.00,29.0,27.2,00.0,37.4,30.5,18.2,0000.0,0003.95,0008.19,0003.15
2023-05-29 10:30:00,,0829.3,5.02,0.00,29.0,27.3,00.0,37.4,30.5,18.3,0000.0,0003.95,0008.49,0003.15
2023-05-29 10:31:00,,0829.4,5.01,0.00,29.0,27.3,00.0,37.4,30.5,18.3,0000.0,0003.94,0008.48,0003.15
2023-05-29 10:32:00,,0829.3,5.00,0.00,29.0,27.3,00.0,37.4,30.5,18.3,0000.0,0003.96,0008.53,0003.15
2023-05-29 10:33:00,,0829.3,4.99,0.00,29.0,27.3,00.0,37.3,30.5,18.4,0000.0,0003.92,0008.33,0003.15
2023-05-29 10:34:00,,0829.4,4.99,0.00,29.0,27.3,00.0,37.3,30.5,18.4,0000.0,0003.95,0008.31,0003.14
2023-05-29 10:35:00,,0829.4,5.01,0.00,29.0,27.3,00.0,37.3,30.5,18.4,0000.0,0003.95,0008.40,0003.14
2023-05-29 10:36:00,,0829.3,5.01,0.00,29.0,27.3,00.0,37.3,30.5,18.2,0000.0,0003.96,0008.40,0003.14
2023-05-29 10:37:00,,0829.3,5.00,0.00,29.0,27.3,00.0,37.3,30.5,18.1,0000.0,0003.97,0008.32,0003.16
2023-05-29 10:38:00,,0829.2,5.00,0.00,29.0,27.3,00.0,37.3,30.5,18.2,0000.0,0003.97,0008.35,0003.16
2023-05-29 10:39:00,,0829.2,4.99,0.00,29.0,27.3,00.0,37.3,30.5,18.2,0000.0,0003.95,0008.30,0003.16
2023-05-29 10:40:00,,0829.3,4.99,0.00,28.9,27.3,00.0,37.3,30.5,18.2,0000.0,0003.94,0007.82,0003.17
2023-05-29 10:41:00,,0829.3,5.00,0.00,29.0,27.2,00.0,37.3,30.5,18.1,0000.0,0003.95,0007.48,0003.18
2023-05-29 10:42:00,,0829.3,5.00,0.00,28.9,27.2,00.0,37.3,30.5,18.1,0000.0,0003.98,0007.74,0003.18
2023-05-29 10:43:00,,0829.4,5.01,0.00,28.9,27.2,00.0,37.3,30.5,18.2,0000.0,0003.98,0007.88,0003.19
2023-05-29 10:44:00,,0829.4,5.01,0.00,28.9,27.2,00.0,37.3,30.5,18.2,0000.0,0003.98,0007.91,0003.20
2023-05-29 10:45:00,,0829.4,5.00,0.00,28.9,27.2,00.0,37.3,30.5,18.3,0000.0,0003.93,0007.83,0003.20
2023-05-29 10:46:00,,0829.3,5.00,0.00,28.9,27.2,00.0,37.3,30.5,18.4,0000.0,0003.89,0007.72,0003.19
2023-05-29 10:47:00,,0829.3,4.99,0.00,28.9,27.2,00.0,37.3,30.5,18.4,0000.0,0003.89,0007.93,0003.19
2023-05-29 10:48:00,,0829.4,4.99,0.00,28.9,27.2,00.0,37.3,30.5,18.4,0000.0,0003.92,0008.26,0003.19
2023-05-29 10:49:00,,0829.4,5.00,0.00,28.9,27.2,00.0,37.3,30.5,18.4,0000.0,0003.95,0008.32,0003.19
2023-05-29 10:50:00,,0829.4,5.00,0.00,28.9,27.2,00.0,37.3,30.5,18.3,0000.0,0003.93,0008.47,0003.19
2023-05-29 10:51:00,,0829.4,5.00,0.00,28.9,27.2,00.0,37.3,30.5,18.3,0000.0,0003.94,0008.61,0003.20
2023-05-29 10:52:00,,0829.4,5.00,0.00,28.9,27.2,00.0,37.3,30.5,18.3,0000.0,0003.95,0008.78,0003.20
2023-05-29 10:53:00,,0829.4,5.00,0.00,28.9,27.2,00.0,37.3,30.5,18.4,0000.0,0003.95,0008.74,0003.19
2023-05-29 10:54:00,,0829.4,5.00,0.00,28.9,27.2,00.0,37.3,30.5,18.6,0000.0,0003.93,0008.80,0003.19
2023-05-29 10:55:00,,0829.3,4.99,0.00,28.9,27.2,00.0,37.3,30.5,19.0,0000.0,0003.91,0008.74,0003.18
2023-05-29 10:56:00,,0829.4,5.00,0.00,28.9,27.2,00.0,37.3,30.5,19.2,0000.0,0003.92,0008.72,0003.18
2023-05-29 10:57:00,,0829.4,5.00,0.00,28.9,27.3,00.0,37.3,30.5,19.0,0000.0,0003.95,0008.74,0003.19
2023-05-29 10:58:00,,0829.4,5.00,0.00,28.9,27.3,00.0,37.3,30.5,18.5,0000.0,0003.94,0008.51,0003.20
2023-05-29 10:59:00,,0829.4,4.99,0.00,28.9,27.3,00.0,37.3,30.5,18.4,0000.0,0003.94,0008.25,0003.19
